Location: Regensburg
(48.4565°N, 10.3217°E)
Time: 09:55:20
(UTC+02:00)

ISS - Visible Passes

Search period start: 28 May 2018 00:00
Search period end: 07 June 2018 00:00
Orbit: 402 x 407 km, 51.6° (Epoch: 28 May)

Date Brightness Start Highest point End Pass type
(mag) Time Alt. Az. Time Alt. Az. Time Alt. Az.
28 May -2.8 01:06:14 10° WNW 01:08:21 36° W 01:08:21 36° W visible
28 May -2.7 22:37:24 10° WNW 22:40:34 45° N 22:43:44 10° ENE visible
29 May -3.9 00:13:59 10° WNW 00:17:16 86° NNE 00:17:42 64° ESE visible
29 May -2.7 21:45:03 10° W 21:48:14 47° N 21:51:26 10° ENE visible
29 May -3.5 23:21:45 10° WNW 23:25:01 64° NNE 23:27:06 20° E visible
30 May -1.9 00:58:23 10° W 00:59:43 20° W 00:59:43 20° W visible
30 May -3.0 22:29:29 10° WNW 22:32:43 51° N 22:35:55 10° E visible
31 May -3.7 00:06:01 10° WNW 00:09:08 54° SW 00:09:08 54° SW visible
31 May -3.9 23:13:44 10° WNW 23:17:01 84° SSW 23:18:35 28° ESE visible
01 Jun -1.2 00:50:50 10° W 00:51:12 12° W 00:51:12 12° W visible
01 Jun -3.6 22:21:27 10° WNW 22:24:44 70° NNE 22:28:00 10° ESE visible
01 Jun -2.6 23:58:10 10° W 00:00:40 28° SW 00:00:40 28° SW visible
02 Jun -3.4 23:05:43 10° WNW 23:08:53 46° SSW 23:10:09 29° SSE visible
03 Jun -3.8 22:13:22 10° WNW 22:16:39 73° SSW 22:19:40 12° ESE visible
03 Jun -1.6 23:50:44 10° W 23:52:18 15° SW 23:52:18 15° SW visible
04 Jun -2.3 22:57:52 10° W 23:00:34 24° SW 23:01:50 19° S visible
05 Jun -3.0 22:05:19 10° WNW 22:08:24 39° SSW 22:11:24 10° SE visible
06 Jun -1.4 22:50:40 10° WSW 22:52:06 12° SW 22:53:32 10° SSW visible
